ILLUMA-T

Last updated on Tue Jul 30 2024 00:02:04 GMT+0000 (Coordinated Universal Time)

1 60181U 98067WR 24211.42134813 .00022166 00000+0 37733-3 0 9994 2 60181 51.6387 105.9490 0010948 131.2489 228.9445 15.51259153 4629
UTC large
Height (km)
Speed (km/s)
/
Latitude / Longitude
Inclination (degrees)
Orbital Period (minutes)
Azimuth
Elevation
Range (km)
Doppler Factor

Next 0 passes for location: London (51.5072 / 0.1276)

Sorry there are no passes over London.